Date String (YYYY-MM-DD hh:mm:ss) UTC,Instrument flags,absolute air pressure of the measurement (hPa),sample flow rate (lpm),inlet stack bypass flow (lpm),air temperature of the measurement (°C),ambient temperature measured by the external sensor (°C),aerosol sample conditioner tube jacket temperature (°C),OPC LED temperature (°C),internal box temperature (°C),relative humidity of the measurement (%),span deviation,mass concentration of particles derived from Lorenz-Mie calculation of OPC scattering (μg/m³),mass concentration of particles derived from Lorenz-Mie calculation of OPC scattering (μg/m³),mass concentration of particles derived from Lorenz-Mie calculation of OPC scattering (μg/m³)
DateTimeUTC,F1_M11,P_M11,Q1_M11,Q2_M11,T1_M11,T2_M11,T3_M11,T4_M11,T5_M11,U1_M11,ZSPAN_M11,X0_M11,X2_M11,X1_M11
2024-01-20 06:00:00,SystemResetWarning,0832.3,5.01,000.00,018.7,017.5,000.0,027.2,020.0,13.3,0000.0,0013.29,0007.78,0007.07
2024-01-20 06:01:00,SystemResetWarning,0832.3,5.00,000.00,018.7,017.4,000.0,027.2,020.0,13.3,0001.3,0013.37,0007.91,0007.17
2024-01-20 06:02:00,SystemResetWarning,0832.3,5.00,000.00,018.7,017.5,000.0,027.2,020.2,13.3,0002.2,0013.63,0008.05,0007.28
2024-01-20 06:03:00,SystemResetWarning,0832.3,5.00,000.00,018.8,018.0,000.0,027.2,020.6,13.3,0002.7,0013.71,0008.18,0007.39
2024-01-20 06:04:00,SystemResetWarning,0832.3,5.00,000.00,018.9,018.6,000.0,027.1,020.8,13.2,0003.1,0013.67,0008.23,0007.46
2024-01-20 06:05:00,SystemResetWarning,0832.2,4.99,000.00,018.9,018.6,000.0,027.1,020.3,13.2,0003.2,0013.61,0008.26,0007.53
2024-01-20 06:06:00,SystemResetWarning,0832.2,4.99,000.00,018.9,018.4,000.0,027.1,020.0,13.2,0003.5,0013.54,0008.25,0007.54
2024-01-20 06:07:00,SystemResetWarning,0832.2,5.00,000.00,018.8,018.3,000.0,027.2,020.0,13.2,0003.5,0013.48,0008.23,0007.52
2024-01-20 06:08:00,SystemResetWarning,0832.2,5.00,000.00,018.8,018.2,000.0,027.2,020.0,13.2,0003.3,0013.39,0008.13,0007.46
2024-01-20 06:09:00,SystemResetWarning,0832.2,5.00,000.00,018.8,018.1,000.0,027.2,020.0,13.2,0003.1,0012.45,0008.04,0007.39
2024-01-20 06:10:00,SystemResetWarning,0832.2,5.00,000.00,018.8,018.0,000.0,027.2,020.0,13.2,0002.9,0012.10,0008.07,0007.38
2024-01-20 06:11:00,SystemResetWarning,0832.2,5.01,000.00,018.8,017.9,000.0,027.2,020.0,13.3,0003.3,0012.80,0008.18,0007.51
2024-01-20 06:12:00,SystemResetWarning,0832.2,5.01,000.00,018.8,017.8,000.0,027.2,020.0,13.2,0003.5,0012.92,0008.24,0007.60
2024-01-20 06:13:00,SystemResetWarning,0832.1,5.00,000.00,018.8,017.7,000.0,027.2,020.0,13.2,0003.2,0012.84,0008.25,0007.61
2024-01-20 06:14:00,SystemResetWarning,0832.2,4.99,000.00,018.8,017.6,000.0,027.2,020.0,13.3,0002.9,0013.09,0008.27,0007.62
2024-01-20 06:15:00,SystemResetWarning,0832.1,4.99,000.00,018.8,017.6,000.0,027.2,020.0,13.2,0002.3,0013.77,0008.39,0007.68
2024-01-20 06:16:00,SystemResetWarning,0832.0,5.00,000.00,018.8,017.5,000.0,027.3,020.0,13.2,0001.8,0014.70,0008.55,0007.78
2024-01-20 06:17:00,SystemResetWarning,0832.0,5.01,000.00,018.7,017.5,000.0,027.3,020.0,13.2,0001.5,0014.77,0008.71,0007.92
2024-01-20 06:18:00,SystemResetWarning,0832.0,5.01,000.00,018.8,017.8,000.0,027.2,020.4,13.1,0001.3,0015.16,0008.93,0008.06
2024-01-20 06:19:00,SystemResetWarning,0832.1,5.00,000.00,018.9,018.4,000.0,027.2,020.7,13.0,0000.8,0015.40,0009.08,0008.19
2024-01-20 06:20:00,SystemResetWarning,0832.0,4.99,000.00,019.0,018.8,000.0,027.2,020.6,13.0,0001.1,0015.51,0009.25,0008.36
2024-01-20 06:21:00,SystemResetWarning,0832.0,4.99,000.00,019.0,018.7,000.0,027.2,020.2,13.0,0001.4,0015.82,0009.36,0008.50
2024-01-20 06:22:00,SystemResetWarning,0831.9,4.99,000.00,018.9,018.5,000.0,027.2,020.0,13.0,0001.8,0016.30,0009.40,0008.53
2024-01-20 06:23:00,SystemResetWarning,0831.9,5.00,000.00,018.9,018.4,000.0,027.2,020.0,13.0,0001.6,0015.46,0009.42,0008.52
2024-01-20 06:24:00,SystemResetWarning,0831.8,5.00,000.00,018.9,018.3,000.0,027.2,020.0,13.0,0001.5,0015.68,0009.51,0008.56
2024-01-20 06:25:00,SystemResetWarning,0831.9,5.00,000.00,018.9,018.2,000.0,027.2,020.0,13.1,0001.9,0015.73,0009.62,0008.64
2024-01-20 06:26:00,SystemResetWarning,0831.8,5.00,000.00,018.8,018.0,000.0,027.2,020.0,13.1,0002.0,0015.45,0009.70,0008.72
2024-01-20 06:27:00,SystemResetWarning,0831.8,4.99,000.00,018.8,017.9,000.0,027.2,020.0,13.2,0002.8,0016.62,0009.71,0008.76
2024-01-20 06:28:00,SystemResetWarning,0831.8,5.00,000.00,018.8,017.9,000.0,027.2,020.0,13.2,0002.8,0016.42,0009.69,0008.75
2024-01-20 06:29:00,SystemResetWarning,0831.9,5.01,000.00,018.8,017.8,000.0,027.2,020.0,13.3,0002.4,0016.68,0009.65,0008.76
2024-01-20 06:30:00,SystemResetWarning,0831.7,5.01,000.00,018.8,017.7,000.0,027.2,020.0,13.3,0002.6,0017.17,0009.62,0008.74
2024-01-20 06:31:00,SystemResetWarning,0831.8,5.00,000.00,018.8,017.7,000.0,027.2,020.0,13.3,0002.4,0017.78,0009.61,0008.70
2024-01-20 06:32:00,SystemResetWarning,0831.7,5.00,000.00,018.8,017.6,000.0,027.2,020.0,13.3,0002.0,0017.97,0009.61,0008.67
2024-01-20 06:33:00,SystemResetWarning,0831.7,5.00,000.00,018.7,017.6,000.0,027.2,020.0,13.3,0001.6,0017.69,0009.62,0008.66
2024-01-20 06:34:00,SystemResetWarning,0831.7,5.00,000.00,018.7,017.5,000.0,027.2,020.0,13.3,0001.6,0018.06,0009.58,0008.62
2024-01-20 06:35:00,SystemResetWarning,0831.7,4.99,000.00,018.7,017.5,000.0,027.2,020.0,13.3,0002.1,0019.01,0009.52,0008.60
2024-01-20 06:36:00,SystemResetWarning,0831.7,5.00,000.00,018.7,017.5,000.0,027.2,020.0,13.3,0002.4,0019.77,0009.49,0008.57
2024-01-20 06:37:00,SystemResetWarning,0831.7,5.00,000.00,018.7,017.5,000.0,027.2,020.0,13.3,0002.4,0020.16,0009.34,0008.46
2024-01-20 06:38:00,SystemResetWarning,0831.6,5.01,000.00,018.7,017.5,000.0,027.2,020.0,13.3,0001.8,0018.45,0009.20,0008.32
2024-01-20 06:39:00,SystemResetWarning,0831.6,5.01,000.00,018.7,017.5,000.0,027.2,020.0,13.2,0001.4,0018.95,0009.07,0008.18
2024-01-20 06:40:00,SystemResetWarning,0831.6,4.99,000.00,018.7,017.5,000.0,027.2,020.1,13.2,0002.0,0018.79,0008.94,0008.06
2024-01-20 06:41:00,SystemResetWarning,0831.6,5.00,000.00,018.7,017.9,000.0,027.2,020.4,13.2,0002.5,0018.73,0008.83,0007.95
2024-01-20 06:42:00,SystemResetWarning,0831.5,5.00,000.00,018.9,018.7,000.0,027.2,020.8,13.1,0002.4,0018.16,0008.72,0007.87
2024-01-20 06:43:00,SystemResetWarning,0831.4,4.99,000.00,019.0,018.9,000.0,027.2,020.7,13.0,0003.1,0018.33,0008.68,0007.81
2024-01-20 06:44:00,SystemResetWarning,0831.5,4.99,000.00,019.0,018.8,000.0,027.2,020.4,13.0,0003.7,0018.04,0008.55,0007.76
2024-01-20 06:45:00,SystemResetWarning,0831.4,5.01,000.00,019.0,018.7,000.0,027.2,020.2,13.0,0003.7,0017.72,0008.50,0007.71
2024-01-20 06:46:00,SystemResetWarning,0831.3,5.01,000.00,018.9,018.6,000.0,027.2,020.1,13.0,0003.8,0016.84,0008.45,0007.67
2024-01-20 06:47:00,SystemResetWarning,0831.3,5.00,000.00,018.9,018.5,000.0,027.2,020.0,13.0,0003.5,0016.07,0008.40,0007.68
2024-01-20 06:48:00,SystemResetWarning,0831.4,4.98,000.00,018.9,018.3,000.0,027.2,020.0,13.0,0003.4,0015.39,0008.51,0007.75
2024-01-20 06:49:00,SystemResetWarning,0831.5,5.00,000.00,018.8,018.2,000.0,027.2,020.0,13.0,0003.1,0015.86,0008.66,0007.87
2024-01-20 06:50:00,SystemResetWarning,0831.4,5.01,000.00,018.8,018.0,000.0,027.2,020.0,13.0,0003.3,0015.55,0008.81,0008.00
2024-01-20 06:51:00,SystemResetWarning,0831.5,5.01,000.00,018.8,017.9,000.0,027.2,020.0,13.1,0003.0,0015.35,0008.97,0008.10
2024-01-20 06:52:00,SystemResetWarning,0831.5,5.01,000.00,018.8,017.9,000.0,027.2,020.0,13.1,0002.9,0015.75,0009.07,0008.19
2024-01-20 06:53:00,SystemResetWarning,0831.4,5.00,000.00,018.8,017.8,000.0,027.3,020.0,13.0,0002.6,0016.85,0009.17,0008.28
2024-01-20 06:54:00,SystemResetWarning,0831.4,5.00,000.00,018.8,017.7,000.0,027.3,020.0,13.0,0002.2,0016.87,0009.20,0008.33
2024-01-20 06:55:00,SystemResetWarning,0831.4,5.00,000.00,018.8,017.7,000.0,027.3,020.0,13.0,0001.9,0017.05,0009.26,0008.37
2024-01-20 06:56:00,SystemResetWarning,0831.4,5.00,000.00,018.8,017.6,000.0,027.3,020.0,13.0,0001.7,0016.96,0009.26,0008.41
2024-01-20 06:57:00,SystemResetWarning,0831.4,5.00,000.00,018.8,017.6,000.0,027.3,020.0,12.9,0001.8,0016.76,0009.31,0008.45
2024-01-20 06:58:00,SystemResetWarning,0831.4,5.00,000.00,018.8,017.6,000.0,027.3,020.0,12.9,0001.7,0016.69,0009.30,0008.45
2024-01-20 06:59:00,SystemResetWarning,0831.4,5.00,000.00,018.8,017.5,000.0,027.2,020.0,13.0,0001.6,0016.84,0009.26,0008.42
